Location: Doughton Park
(36.4224°N, 81.1835°W)
Time: 09:44:13
(UTC-04:00)

Amateur Radio Satellites - All Passes

Search period start: 16 April 2014 09:14
Search period end: 17 April 2014 09:14
Location: Doughton Park, 36.4224°N, 81.1835°W

Satellite Date Start Highest point End Downlink Frequencies (MHz)
Time Altitude Azimuth
JAS-2 16 Apr 09:29:54 09:34:38 34° 290° (WNW) 09:39:45 435.800 - 435.900 CW/SSB, 435.910 FM
MaSat-1 16 Apr 09:35:47 09:38:03 19° 250° (WSW) 09:40:36 437.345 MHz
SO-67 16 Apr 09:39:18 09:41:26 15° 290° (WNW) 09:43:33 435.3500 MHz FM
HO-68 16 Apr 09:42:48 09:48:51 29° 96° (E) 09:54:51 435.675 MHz FM
RS-15 16 Apr 10:07:47 10:17:43 35° 316° (NW) 10:27:29 29.354 - 29.394 USB, Beacon 29.352 USB
PCSat 16 Apr 10:15:49 10:19:41 20° 50° (NE) 10:23:33 145.825 MHz
Oscar 11 16 Apr 10:20:41 10:23:51 19° 94° (E) 10:27:00 145.825 FM, Beacon 2401.500 USB
KITSAT 1 16 Apr 11:10:35 11:14:09 13° 33° (NNE) 11:17:42 435.175 FM
Sapphire 16 Apr 11:12:54 11:18:12 52° 60° (ENE) 11:23:28 437.095 MHz 1200 baud AX-25 AFSK
PANSAT 16 Apr 11:29:51 11:32:48 21° 171° (S) 11:35:45 not established
HO-68 16 Apr 11:29:52 11:36:42 49° 292° (WNW) 11:43:31 435.675 MHz FM
FUNcube-1 16 Apr 11:35:23 11:39:25 42° 99° (E) 11:43:30 145.950 - 145.970 MHz USB
Saudisat 1A 16 Apr 11:54:38 11:58:38 33° 113° (ESE) 12:02:39 436.775 MHz
Oscar 11 16 Apr 11:56:13 12:00:04 31° 289° (WNW) 12:03:54 145.825 FM, Beacon 2401.500 USB
PCSat 16 Apr 11:58:10 12:03:29 58° 247° (WSW) 12:08:46 145.825 MHz
RS-15 16 Apr 12:29:56 12:34:57 14° 350° (N) 12:39:58 29.354 - 29.394 USB, Beacon 29.352 USB
Sapphire 16 Apr 12:57:33 13:01:09 18° 255° (WSW) 13:04:45 437.095 MHz 1200 baud AX-25 AFSK
KITSAT 1 16 Apr 13:03:45 13:11:39 53° 56° (NE) 13:19:28 435.175 FM
PANSAT 16 Apr 13:09:22 13:12:32 24° 183° (S) 13:15:41 not established
FUNcube-1 16 Apr 13:13:09 13:15:29 15° 293° (WNW) 13:17:51 145.950 - 145.970 MHz USB
Saudisat 1A 16 Apr 13:34:39 13:38:16 24° 309° (NW) 13:41:55 436.775 MHz
AO-27 16 Apr 13:43:44 13:47:37 22° 66° (ENE) 13:51:29 436.795 MHz FM
ITAMSAT 1 16 Apr 13:54:52 13:59:09 27° 68° (ENE) 14:03:27 435.822 SSB
Oscar 19 16 Apr 14:06:31 14:11:35 67° 74° (ENE) 14:16:43 437.125 CW, 437.150 USB
Oscar 16 16 Apr 14:14:08 14:19:15 86° 76° (ENE) 14:24:25 437.025 USB, Beacon 2401.1428
AO-Echo 16 Apr 14:35:23 14:40:31 53° 73° (ENE) 14:45:34 ?
Uribyol 2 16 Apr 14:43:07 14:48:17 85° 76° (ENE) 14:53:28 436.500 FM
RS-15 16 Apr 14:46:19 14:53:47 20° 28° (NNE) 15:01:16 29.354 - 29.394 USB, Beacon 29.352 USB
PANSAT 16 Apr 14:49:57 14:52:12 15° 196° (SSW) 14:54:27 not established
Gurwin Techsat 1B 16 Apr 14:55:33 15:00:10 31° 69° (ENE) 15:04:48 435.225 FM
KITSAT 1 16 Apr 14:59:47 15:06:38 32° 254° (WSW) 15:13:27 435.175 FM
AO-27 16 Apr 15:21:56 15:26:49 41° 261° (W) 15:31:43 436.795 MHz FM
OPAL 16 Apr 15:33:19 15:38:01 33° 99° (E) 15:42:41 ?
ITAMSAT 1 16 Apr 15:33:53 15:38:30 32° 263° (W) 15:43:07 435.822 SSB
TMSAT-1 16 Apr 15:45:12 15:50:26 66° 74° (ENE) 15:55:41 436.925 FM
Oscar 19 16 Apr 15:49:26 15:51:22 12° 269° (W) 15:53:19 437.125 CW, 437.150 USB
AO-7 16 Apr 16:04:06 16:11:31 39° 63° (ENE) 16:18:56 29.400 - 29.500 MHz
JAS-1B 16 Apr 16:09:56 16:18:21 62° 73° (ENE) 16:25:24 435.800 - 435.900 CW/SSB
AO-Echo 16 Apr 16:16:15 16:19:31 17° 267° (W) 16:22:46 ?
Uosat F 16 Apr 16:29:35 16:34:34 67° 74° (ENE) 16:39:34 435.120 FM
ISS 16 Apr 16:35:08 16:38:22 49° 135° (SE) 16:41:37 145.800 FM
Gurwin Techsat 1B 16 Apr 16:35:32 16:40:04 29° 264° (W) 16:44:38 435.225 FM
RS-15 16 Apr 16:58:00 17:08:53 64° 56° (NE) 17:20:01 29.354 - 29.394 USB, Beacon 29.352 USB
SO-50 16 Apr 17:08:45 17:13:13 72° 301° (WNW) 17:17:43 436.795 FM
OPAL 16 Apr 17:12:23 17:16:44 28° 294° (WNW) 17:21:04 ?
TMSAT-1 16 Apr 17:28:26 17:30:46 13° 269° (W) 17:33:06 436.925 FM
AO-7 16 Apr 17:56:20 18:04:07 44° 259° (W) 18:11:56 29.400 - 29.500 MHz
JAS-1B 16 Apr 18:02:26 18:09:02 24° 264° (W) 18:14:54 435.800 - 435.900 CW/SSB
UOSAT-12 16 Apr 18:10:55 18:14:33 24° 111° (ESE) 18:18:14 437.025 FM, 437.400 FM
Uosat F 16 Apr 18:12:00 18:13:46 12° 269° (W) 18:15:33 435.120 FM
Hamsat 16 Apr 18:12:00 18:15:24 25° 70° (ENE) 18:18:51 145.90 MHz
ISS 16 Apr 18:12:48 18:15:18 19° 331° (NNW) 18:17:49 145.800 FM
RS-15 16 Apr 19:11:14 19:20:29 33° 255° (WSW) 19:30:01 29.354 - 29.394 USB, Beacon 29.352 USB
JAS-2 16 Apr 19:38:43 19:44:51 72° 75° (ENE) 19:50:20 435.800 - 435.900 CW/SSB, 435.910 FM
STRAND 1 16 Apr 19:44:35 19:49:29 47° 100° (E) 19:54:22 ?
Hamsat 16 Apr 19:48:00 19:51:19 23° 265° (W) 19:54:40 145.90 MHz
UOSAT-12 16 Apr 19:50:24 19:54:31 33° 307° (NW) 19:58:42 437.025 FM, 437.400 FM
SO-67 16 Apr 20:09:14 20:12:41 67° 260° (W) 20:16:10 435.3500 MHz FM
HO-68 16 Apr 20:10:46 20:15:06 17° 57° (ENE) 20:19:26 435.675 MHz FM
Saudisat 1A 16 Apr 20:24:39 20:27:17 15° 46° (NE) 20:29:55 436.775 MHz
Oscar 11 16 Apr 21:15:13 21:16:49 12° 65° (ENE) 21:18:25 145.825 FM, Beacon 2401.500 USB
STRAND 1 16 Apr 21:24:50 21:28:17 19° 295° (WNW) 21:31:44 ?
JAS-2 16 Apr 21:27:38 21:30:14 13° 267° (W) 21:32:45 435.800 - 435.900 CW/SSB, 435.910 FM
HO-68 16 Apr 21:54:45 22:01:54 84° 255° (WSW) 22:09:05 435.675 MHz FM
MaSat-1 16 Apr 21:59:29 22:01:27 15° 110° (ESE) 22:03:15 437.345 MHz
Saudisat 1A 16 Apr 22:02:56 22:07:15 57° 243° (WSW) 22:11:31 436.775 MHz
FUNcube-1 16 Apr 22:30:13 22:33:41 25° 70° (ENE) 22:37:07 145.950 - 145.970 MHz USB
Oscar 11 16 Apr 22:48:18 22:52:30 54° 260° (W) 22:56:44 145.825 FM, Beacon 2401.500 USB
ISS 16 Apr 23:06:23 23:09:12 24° 31° (NNE) 23:12:00 145.800 FM
MaSat-1 16 Apr 23:37:54 23:39:47 15° 298° (WNW) 23:41:31 437.345 MHz
HO-68 16 Apr 23:48:08 23:50:28 12° 270° (W) 23:52:48 435.675 MHz FM
FUNcube-1 17 Apr 00:06:40 00:10:02 23° 264° (W) 00:13:23 145.950 - 145.970 MHz USB
ISS 17 Apr 00:42:55 00:45:59 34° 227° (SW) 00:49:03 145.800 FM
PCSat 17 Apr 00:55:02 00:59:27 26° 107° (ESE) 01:03:52 145.825 MHz
SO-50 17 Apr 01:42:46 01:47:17 49° 56° (ENE) 01:51:52 436.795 FM
Sapphire 17 Apr 01:51:54 01:57:18 83° 115° (ESE) 02:02:44 437.095 MHz 1200 baud AX-25 AFSK
ITAMSAT 1 17 Apr 02:12:36 02:13:52 11° 91° (E) 02:15:07 435.822 SSB
Oscar 19 17 Apr 02:21:10 02:25:41 29° 96° (E) 02:30:10 437.125 CW, 437.150 USB
Oscar 16 17 Apr 02:28:42 02:33:31 38° 98° (E) 02:38:18 437.025 USB, Beacon 2401.1428
PCSat 17 Apr 02:37:38 02:42:38 38° 303° (WNW) 02:47:40 145.825 MHz
UOSAT-12 17 Apr 02:43:24 02:45:49 14° 44° (NE) 02:48:14 437.025 FM, 437.400 FM
OPAL 17 Apr 02:45:52 02:50:35 44° 69° (ENE) 02:55:22 ?
AO-Echo 17 Apr 02:46:34 02:49:57 19° 94° (E) 02:53:16 ?
Uribyol 2 17 Apr 02:58:44 03:03:31 37° 98° (E) 03:08:17 436.500 FM
Gurwin Techsat 1B 17 Apr 03:15:28 03:18:25 15° 92° (E) 03:21:21 435.225 FM
SO-50 17 Apr 03:24:35 03:27:28 16° 251° (WSW) 03:30:22 436.795 FM
KITSAT 1 17 Apr 03:28:50 03:36:35 52° 111° (ESE) 03:44:22 435.175 FM
AO-27 17 Apr 03:37:11 03:42:23 87° 104° (ESE) 03:47:34 436.795 MHz FM
Sapphire 17 Apr 03:38:28 03:41:24 15° 313° (NW) 03:44:20 437.095 MHz 1200 baud AX-25 AFSK
ITAMSAT 1 17 Apr 03:48:41 03:53:51 74° 285° (WNW) 03:58:59 435.822 SSB
Oscar 19 17 Apr 04:00:28 04:04:56 30° 291° (WNW) 04:09:23 437.125 CW, 437.150 USB
JAS-1B 17 Apr 04:00:46 04:03:06 13° 92° (E) 04:05:29 435.800 - 435.900 CW/SSB
TMSAT-1 17 Apr 04:04:02 04:08:45 32° 97° (E) 04:13:27 436.925 FM
Oscar 16 17 Apr 04:08:33 04:12:37 24° 293° (WNW) 04:16:40 437.025 USB, Beacon 2401.1428
AO-7 17 Apr 04:11:56 04:14:24 11° 90° (E) 04:16:53 29.400 - 29.500 MHz
UOSAT-12 17 Apr 04:21:49 04:26:32 77° 242° (WSW) 04:31:12 437.025 FM, 437.400 FM
AO-Echo 17 Apr 04:24:27 04:28:51 37° 289° (WNW) 04:33:10 ?
OPAL 17 Apr 04:26:11 04:29:38 19° 264° (W) 04:33:09 ?
Uribyol 2 17 Apr 04:38:43 04:42:45 24° 293° (WNW) 04:46:48 436.500 FM
Uosat F 17 Apr 04:40:35 04:44:40 25° 96° (E) 04:48:43 435.120 FM
Gurwin Techsat 1B 17 Apr 04:53:31 04:58:43 58° 287° (WNW) 05:03:54 435.225 FM
AO-27 17 Apr 05:20:15 05:21:07 10° 299° (WNW) 05:21:59 436.795 MHz FM
KITSAT 1 17 Apr 05:24:55 05:32:11 35° 310° (NW) 05:39:31 435.175 FM
TMSAT-1 17 Apr 05:44:06 05:48:32 28° 292° (WNW) 05:52:57 436.925 FM
JAS-1B 17 Apr 05:48:41 05:54:18 65° 287° (WNW) 06:00:06 435.800 - 435.900 CW/SSB
AO-7 17 Apr 05:59:59 06:08:19 76° 106° (ESE) 06:16:38 29.400 - 29.500 MHz
Uosat F 17 Apr 06:19:01 06:23:26 32° 291° (WNW) 06:27:50 435.120 FM
STRAND 1 17 Apr 06:58:01 07:02:58 53° 73° (ENE) 07:07:56 ?
RS-15 17 Apr 07:17:52 07:28:46 53° 111° (ESE) 07:39:15 29.354 - 29.394 USB, Beacon 29.352 USB
Hamsat 17 Apr 07:35:15 07:39:36 74° 101° (ESE) 07:43:57 145.90 MHz
SO-67 17 Apr 07:39:03 07:39:27 10° 92° (E) 07:39:50 435.3500 MHz FM
AO-7 17 Apr 07:54:11 08:00:15 23° 303° (WNW) 08:06:21 29.400 - 29.500 MHz
MaSat-1 17 Apr 08:02:13 08:04:54 29° 65° (ENE) 08:08:00 437.345 MHz
Oscar 10/S400 17 Apr 08:10:51 04:12:21 45° 140° (SE) 05:58:23 145.825 - 145.975 CW/USB, Beacon 145.810 USB
JAS-2 17 Apr 08:34:22 08:39:45 79° 103° (ESE) 08:45:40 435.800 - 435.900 CW/SSB, 435.910 FM
STRAND 1 17 Apr 08:39:24 08:42:26 16° 267° (W) 08:45:28 ?
